Weather History for KCCY - March, 2013

Change the Weather History Date:

Tuesday, March 19, 2013

  Actual Average (KMCW) Record (KMCW)
Temperature  
Mean Temperature 16 °F 34 °F  
Max Temperature 24 °F 44 °F 79 °F (2012)
Min Temperature 8 °F 25 °F -16 °F (1923)
Degree Days  
Heating Degree Days 49 31  
Month to date heating degree days 660  
Since 1 July heating degree days 6511  
Cooling Degree Days 0 0  
Month to date cooling degree days 0  
Year to date cooling degree days 0  
Moisture  
Dew Point 6 °F    
Average Humidity 64    
Maximum Humidity 79    
Minimum Humidity 50    
Precipitation  
Precipitation 0.00 in 0.08 in 1.25 in (1933)
Month to date precipitation 1.18  
Year to date precipitation 3.00  
Snow  
Snow 0.00 in 0.20 in 15.00 in (1933)
Month to date snowfall 4.1  
Since 1 July snowfall 36.6  
Snow Depth -    
Sea Level Pressure  
Sea Level Pressure 30.05 in    
Wind  
Wind Speed 22 mph (WNW)    
Max Wind Speed 29 mph    
Max Gust Speed 38 mph    
Visibility 10 miles    
Events Rain , Snow    
T = Trace of Precipitation, MM = Missing Value Source: NWS Daily Summary

Daily Weather History Graph

Daily Weather History Graph

Search for Another Location

Airport or City:

Trip Planner

Search our weather history database for the weather conditions in past years. The results will help you decide how hot, cold, wet, or windy it might be!

Date:

Astronomy

Mar. 19, 2013 Rise Set
Actual Time 7:14 AM CDT 7:21 PM CDT
Civil Twilight 6:46 AM CDT 7:50 PM CDT
Nautical Twilight 6:13 AM CDT 8:23 PM CDT
Astronomical Twilight 5:39 AM CDT 8:57 PM CDT
Moon 11:57 AM CDT (3/19) 2:17 AM CDT (3/19)
Length of Visible Light 13h 03m
Length of Day
12h 06m
Waxing Crescent, 50% of the Moon is Illuminated
Mar 19
Waxing Crescent
Mar 19
First Quarter
Mar 27
Full
Apr 2
Last Quarter
Apr 10
New

Hourly Weather History & Observations

Time (CDT) Temp. Windchill Dew Point Humidity Pressure Visibility Wind Dir Wind Speed Gust Speed Precip Events Conditions
12:15 AM 14.0 °F -6.5 °F 6.8 °F 73% 29.87 in 3.0 mi WNW 28.8 mph 38.0 mph N/A   Light Freezing Rain
12:35 AM 14.0 °F -5.1 °F 6.8 °F 73% 29.87 in 7.0 mi WNW 24.2 mph 31.1 mph N/A   Light Freezing Rain
12:55 AM 12.2 °F -8.2 °F 6.8 °F 79% 29.87 in 4.0 mi WNW 26.5 mph 32.2 mph N/A Snow Light Snow
1:15 AM 12.2 °F -7.5 °F 5.0 °F 73% 29.87 in 5.0 mi WNW 24.2 mph 34.5 mph N/A   Light Freezing Rain
1:35 AM 12.2 °F -7.9 °F 5.0 °F 73% 29.87 in 9.0 mi WNW 25.3 mph - N/A   Overcast
1:55 AM 12.2 °F -6.7 °F 5.0 °F 73% 29.87 in 9.0 mi WNW 21.9 mph 29.9 mph N/A Rain Light Freezing Rain
2:15 AM 12.2 °F -5.8 °F 5.0 °F 73% 29.88 in 10.0 mi WNW 19.6 mph 27.6 mph N/A   Mostly Cloudy
2:35 AM 10.4 °F -10.3 °F 5.0 °F 79% 29.88 in 10.0 mi WNW 25.3 mph - N/A   Mostly Cloudy
2:55 AM 10.4 °F -9.5 °F 3.2 °F 73% 29.89 in 10.0 mi WNW 23.0 mph - N/A   Mostly Cloudy
3:15 AM 10.4 °F -8.6 °F 3.2 °F 73% 29.89 in 10.0 mi WNW 20.7 mph 31.1 mph N/A   Partly Cloudy
3:35 AM 10.4 °F -9.1 °F 3.2 °F 73% 29.91 in 10.0 mi WNW 21.9 mph 28.8 mph N/A   Clear
3:55 AM 10.4 °F -9.5 °F 3.2 °F 73% 29.92 in 10.0 mi West 23.0 mph 29.9 mph N/A   Partly Cloudy
4:15 AM 10.4 °F -8.6 °F 3.2 °F 73% 29.93 in 10.0 mi WNW 20.7 mph 27.6 mph N/A   Mostly Cloudy
4:35 AM 10.4 °F -8.2 °F 3.2 °F 73% 29.94 in 10.0 mi West 19.6 mph 26.5 mph N/A   Overcast
4:55 AM 10.4 °F -8.6 °F 3.2 °F 73% 29.94 in 10.0 mi WNW 20.7 mph 31.1 mph N/A   Overcast
5:15 AM 10.4 °F -9.5 °F 3.2 °F 73% 29.94 in 10.0 mi WNW 23.0 mph 28.8 mph N/A   Overcast
5:35 AM 10.4 °F -8.6 °F 3.2 °F 73% 29.95 in 10.0 mi WNW 20.7 mph 28.8 mph N/A   Overcast
5:55 AM 10.4 °F -9.1 °F 3.2 °F 73% 29.95 in 10.0 mi WNW 21.9 mph - N/A   Scattered Clouds
6:15 AM 8.6 °F -11.4 °F 1.4 °F 73% 29.95 in 10.0 mi WNW 21.9 mph 28.8 mph N/A   Clear
6:55 AM 8.6 °F -10.5 °F 1.4 °F 73% 29.97 in 10.0 mi WNW 19.6 mph - N/A   Clear
7:15 AM 8.6 °F -10.0 °F 1.4 °F 73% 29.98 in 10.0 mi WNW 18.4 mph 29.9 mph N/A   Clear
7:35 AM 8.6 °F -10.5 °F 1.4 °F 73% 30.00 in 10.0 mi WNW 19.6 mph 25.3 mph N/A   Clear
7:55 AM 10.4 °F -7.2 °F 1.4 °F 67% 30.00 in 10.0 mi WNW 17.3 mph 24.2 mph N/A   Clear
8:15 AM 10.4 °F -9.1 °F 1.4 °F 67% 30.01 in 10.0 mi WNW 21.9 mph - N/A   Clear
8:35 AM 10.4 °F -9.1 °F 1.4 °F 67% 30.02 in 10.0 mi WNW 21.9 mph 28.8 mph N/A   Clear
8:55 AM 10.4 °F -9.5 °F 1.4 °F 67% 30.02 in 10.0 mi WNW 23.0 mph - N/A   Clear
9:15 AM 12.2 °F -6.3 °F 1.4 °F 62% 30.04 in 10.0 mi WNW 20.7 mph 27.6 mph N/A   Clear
9:35 AM 12.2 °F -7.9 °F 3.2 °F 67% 30.05 in 10.0 mi WNW 25.3 mph - N/A   Clear
9:55 AM 12.2 °F -7.1 °F 3.2 °F 67% 30.05 in 10.0 mi WNW 23.0 mph 29.9 mph N/A   Clear
10:15 AM 14.0 °F -3.9 °F 3.2 °F 62% 30.06 in 10.0 mi WNW 20.7 mph - N/A   Clear
10:35 AM 15.8 °F -1.5 °F 3.2 °F 58% 30.07 in 10.0 mi WNW 20.7 mph 27.6 mph N/A   Clear
10:55 AM 15.8 °F -2.3 °F 3.2 °F 58% 30.07 in 10.0 mi WNW 23.0 mph 31.1 mph N/A   Clear
11:15 AM 15.8 °F -2.3 °F 3.2 °F 58% 30.09 in 10.0 mi WNW 23.0 mph - N/A   Clear
11:35 AM 15.8 °F -2.3 °F 3.2 °F 58% 30.10 in 10.0 mi WNW 23.0 mph 29.9 mph N/A   Clear
11:55 AM 17.6 °F 0.9 °F 5.0 °F 58% 30.09 in 10.0 mi WNW 20.7 mph 28.8 mph N/A   Clear
12:15 PM 17.6 °F 0.5 °F 5.0 °F 58% 30.09 in 10.0 mi WNW 21.9 mph 27.6 mph N/A   Clear
12:35 PM 17.6 °F 2.2 °F 5.0 °F 58% 30.09 in 10.0 mi WNW 17.3 mph 25.3 mph N/A   Clear
12:55 PM 19.4 °F 4.5 °F 6.8 °F 58% 30.10 in 10.0 mi WNW 17.3 mph 24.2 mph N/A   Clear
1:15 PM 19.4 °F 5.0 °F 8.6 °F 63% 30.09 in 10.0 mi WNW 16.1 mph 25.3 mph N/A   Clear
1:35 PM 21.2 °F 6.8 °F 8.6 °F 58% 30.09 in 10.0 mi WNW 17.3 mph 26.5 mph N/A   Clear
1:55 PM 21.2 °F 5.6 °F 6.8 °F 54% 30.10 in 10.0 mi WNW 20.7 mph 27.6 mph N/A   Clear
2:15 PM 21.2 °F 5.2 °F 8.6 °F 58% 30.10 in 10.0 mi West 21.9 mph - N/A   Clear
2:35 PM 21.2 °F 5.6 °F 8.6 °F 58% 30.10 in 10.0 mi WNW 20.7 mph - N/A   Clear
2:55 PM 21.2 °F 5.6 °F 8.6 °F 58% 30.10 in 10.0 mi WNW 20.7 mph 27.6 mph N/A   Clear
3:15 PM 23.0 °F 8.3 °F 8.6 °F 54% 30.10 in 10.0 mi WNW 19.6 mph 25.3 mph N/A   Scattered Clouds
3:35 PM 23.0 °F 9.2 °F 10.4 °F 59% 30.11 in 10.0 mi WNW 17.3 mph 25.3 mph N/A   Partly Cloudy
3:55 PM 23.0 °F 9.6 °F 8.6 °F 54% 30.11 in 10.0 mi WNW 16.1 mph 24.2 mph N/A   Mostly Cloudy
4:15 PM 24.8 °F 11.1 °F 10.4 °F 54% 30.11 in 10.0 mi West 18.4 mph 24.2 mph N/A   Mostly Cloudy
4:35 PM 24.8 °F 11.5 °F 10.4 °F 54% 30.12 in 10.0 mi West 17.3 mph 24.2 mph N/A   Partly Cloudy
4:55 PM 24.8 °F 11.5 °F 8.6 °F 50% 30.12 in 10.0 mi WNW 17.3 mph 24.2 mph N/A   Clear
5:15 PM 24.8 °F 10.7 °F 10.4 °F 54% 30.13 in 10.0 mi WNW 19.6 mph - N/A   Clear
5:35 PM 23.0 °F 7.6 °F 8.6 °F 54% 30.13 in 10.0 mi WNW 21.9 mph 28.8 mph N/A   Clear
5:55 PM 23.0 °F 8.0 °F 8.6 °F 54% 30.14 in 10.0 mi WNW 20.7 mph 26.5 mph N/A   Clear
6:15 PM 23.0 °F 7.2 °F 10.4 °F 59% 30.15 in 10.0 mi WNW 23.0 mph - N/A   Scattered Clouds
6:35 PM 23.0 °F 8.7 °F 10.4 °F 59% 30.15 in 10.0 mi WNW 18.4 mph 26.5 mph N/A   Mostly Cloudy
6:55 PM 21.2 °F 5.6 °F 10.4 °F 63% 30.15 in 10.0 mi WNW 20.7 mph - N/A   Mostly Cloudy
7:15 PM 21.2 °F 6.4 °F 10.4 °F 63% 30.16 in 10.0 mi NW 18.4 mph 24.2 mph N/A   Overcast
7:35 PM 21.2 °F 7.8 °F 10.4 °F 63% 30.16 in 10.0 mi NW 15.0 mph 23.0 mph N/A   Overcast
7:55 PM 21.2 °F 6.4 °F 8.6 °F 58% 30.16 in 10.0 mi NW 18.4 mph - N/A   Overcast
8:15 PM 19.4 °F 3.2 °F 8.6 °F 63% 30.16 in 10.0 mi NW 20.7 mph 27.6 mph N/A   Overcast
8:35 PM 19.4 °F 3.6 °F 8.6 °F 63% 30.17 in 10.0 mi NW 19.6 mph 32.2 mph N/A   Overcast
8:55 PM 19.4 °F 3.6 °F 8.6 °F 63% 30.17 in 10.0 mi NW 19.6 mph 29.9 mph N/A   Mostly Cloudy
9:15 PM 17.6 °F 0.5 °F 8.6 °F 68% 30.17 in 10.0 mi WNW 21.9 mph 31.1 mph N/A   Mostly Cloudy
9:35 PM 17.6 °F 0.5 °F 6.8 °F 63% 30.18 in 10.0 mi WNW 21.9 mph 27.6 mph N/A   Scattered Clouds
10:15 PM 15.8 °F -1.5 °F 5.0 °F 62% 30.19 in 10.0 mi NW 20.7 mph 29.9 mph N/A   Clear
10:35 PM 15.8 °F -2.3 °F 3.2 °F 58% 30.18 in 10.0 mi NW 23.0 mph - N/A   Clear
10:55 PM 14.0 °F -3.9 °F 1.4 °F 57% 30.18 in 10.0 mi NW 20.7 mph 29.9 mph N/A   Clear
11:15 PM 14.0 °F -4.3 °F 3.2 °F 62% 30.19 in 10.0 mi NW 21.9 mph - N/A   Clear
11:35 PM 14.0 °F -4.3 °F 3.2 °F 62% 30.19 in 10.0 mi NW 21.9 mph - N/A   Clear
11:55 PM 12.2 °F -7.1 °F 3.2 °F 67% 30.19 in 10.0 mi NW 23.0 mph - N/A   Clear